Portsmouth, NH

4:08 AM EST on January 23, 2018 (GMT -0500)
Pease International Tradeport

Weather History for KPSM - February, 2012

Change the Weather History Date:

Thursday, February 2, 2012

  Actual Average Record
Temperature  
Mean Temperature 33 °F -  
Max Temperature 38 °F 33 °F 56 °F (1989)
Min Temperature 27 °F 16 °F -11 °F (1984)
Degree Days  
Heating Degree Days 32    
Moisture  
Dew Point 24 °F    
Average Humidity 72    
Maximum Humidity 87    
Minimum Humidity 59    
Precipitation  
Precipitation 0.00 in - - ()
Sea Level Pressure  
Sea Level Pressure 30.07 in    
Wind  
Wind Speed 7 mph (NNE)    
Max Wind Speed 10 mph    
Max Gust Speed -    
Visibility 10 miles    
Events      
Averages and records for this station are not official NWS values.
T = Trace of Precipitation, MM = Missing Value Source: NWS Daily Summary

Daily Weather History Graph

Daily Weather History Graph

Search for Another Location

Airport or City:

Trip Planner

Search our weather history database for the weather conditions in past years. The results will help you decide how hot, cold, wet, or windy it might be!

Date:

Astronomy

Feb. 02, 2012 Rise Set
Actual Time 6:58 AM EST 4:56 PM EST
Civil Twilight 6:27 AM EST 5:26 PM EST
Nautical Twilight 5:53 AM EST 6:00 PM EST
Astronomical Twilight 5:20 AM EST 6:33 PM EST
Moon 12:02 PM EST (2/2) 2:40 AM EST (2/2)
Length of Visible Light 10h 58m
Length of Day
9h 58m
Waxing Gibbous, 73% of the Moon is Illuminated
Feb 2
Waxing Gibbous
Feb 7
Full
Feb 14
Last Quarter
Feb 21
New
Feb 29
First Quarter

Hourly Weather History & Observations

Time (EST) Temp. Windchill Dew Point Humidity Pressure Visibility Wind Dir Wind Speed Gust Speed Precip Events Conditions
12:55 AM 37.9 °F 32.7 °F 29.7 °F 72% 29.94 in 10.0 mi West 6.9 mph - N/A   Mostly Cloudy
1:55 AM 38.7 °F 35.2 °F 29.8 °F 71% 29.95 in 10.0 mi SW 4.6 mph - N/A   Overcast
2:55 AM 38.7 °F 34.3 °F 29.8 °F 71% 29.96 in 10.0 mi West 5.8 mph - N/A   Overcast
3:55 AM 38.7 °F 36.3 °F 29.3 °F 69% 29.96 in 10.0 mi West 3.5 mph - N/A   Overcast
4:55 AM 38.3 °F 35.9 °F 29.3 °F 70% 29.98 in 10.0 mi NW 3.5 mph - N/A   Overcast
5:55 AM 36.1 °F 31.4 °F 30.0 °F 78% 29.99 in 10.0 mi WNW 5.8 mph - N/A   Mostly Cloudy
6:55 AM 37.2 °F 31.2 °F 28.6 °F 71% 30.01 in 10.0 mi WNW 8.1 mph - N/A   Mostly Cloudy
7:55 AM 36.3 °F 33.7 °F 29.5 °F 76% 30.05 in 10.0 mi ENE 3.5 mph - N/A   Overcast
8:55 AM 34.3 °F 27.0 °F 30.6 °F 86% 30.06 in 10.0 mi NE 9.2 mph - N/A   Overcast
9:21 AM 33.8 °F 25.8 °F 30.2 °F 87% 30.06 in 10.0 mi NE 10.4 mph - N/A   Overcast
9:48 AM 33.8 °F 25.8 °F 28.4 °F 81% 30.06 in 10.0 mi ENE 10.4 mph - N/A   Overcast
9:55 AM 33.3 °F 25.1 °F 28.4 °F 82% 30.06 in 10.0 mi ENE 10.4 mph - N/A   Overcast
10:34 AM 32.0 °F 24.8 °F 26.6 °F 80% 30.08 in 10.0 mi ENE 8.1 mph - N/A   Overcast
10:55 AM 32.4 °F 24.6 °F 25.7 °F 76% 30.08 in 10.0 mi NE 9.2 mph - N/A   Overcast
11:55 AM 31.5 °F 24.9 °F 23.7 °F 73% 30.07 in 10.0 mi NE 6.9 mph - N/A   Overcast
12:46 PM 30.2 °F 23.4 °F 23.0 °F 75% 30.06 in 10.0 mi East 6.9 mph - N/A   Overcast
12:55 PM 31.1 °F 24.5 °F 23.4 °F 73% 30.06 in 10.0 mi East 6.9 mph - N/A   Overcast
1:55 PM 30.9 °F 25.2 °F 23.2 °F 73% 30.06 in 10.0 mi ENE 5.8 mph - N/A   Overcast
2:55 PM 30.7 °F 22.6 °F 22.5 °F 71% 30.07 in 10.0 mi ENE 9.2 mph - N/A   Overcast
3:55 PM 30.4 °F 22.9 °F 22.5 °F 72% 30.07 in 10.0 mi ENE 8.1 mph - N/A   Overcast
4:55 PM 30.4 °F 24.5 °F 22.5 °F 72% 30.09 in 10.0 mi NE 5.8 mph - N/A   Overcast
5:55 PM 30.2 °F 25.4 °F 21.9 °F 71% 30.12 in 10.0 mi NNE 4.6 mph - N/A   Overcast
6:12 PM 30.2 °F 26.7 °F 21.2 °F 69% 30.13 in 10.0 mi NE 3.5 mph - N/A   Overcast
6:55 PM 30.0 °F 23.2 °F 20.8 °F 69% 30.13 in 10.0 mi North 6.9 mph - N/A   Overcast
7:55 PM 29.5 °F 21.8 °F 18.7 °F 64% 30.14 in 10.0 mi North 8.1 mph - N/A   Overcast
8:19 PM 30.2 °F 21.3 °F 19.4 °F 64% 30.15 in 10.0 mi North 10.4 mph - N/A   Overcast
8:55 PM 29.5 °F 20.4 °F 18.0 °F 62% 30.16 in 10.0 mi North 10.4 mph - N/A   Overcast
9:55 PM 28.9 °F 20.4 °F 16.7 °F 60% 30.17 in 10.0 mi NNE 9.2 mph - N/A   Overcast
10:55 PM 28.4 °F 19.1 °F 16.9 °F 62% 30.19 in 10.0 mi North 10.4 mph - N/A   Overcast
11:12 PM 28.4 °F 19.7 °F 15.8 °F 59% 30.20 in 10.0 mi NNE 9.2 mph - N/A   Overcast
11:55 PM 27.3 °F 17.7 °F 14.9 °F 60% 30.21 in 10.0 mi NNE 10.4 mph - N/A   Overcast